Hourly Data Report for September 10, 2017

All times are specified in Local Standard Time (LST). Add 1 hour to adjust for Daylight Saving Time where and when it is observed.

EUREKA CLIMATE
NUNAVUT

79°59'21.000" N
85°56'02.000" W
10.00 m
2401199
71613
NEK

Download Data

Hourly Data (September 2017)
Hourly Data Report for September 10, 2017
Temp Definition
°C
Dew Point Temp Definition
°C
Rel Hum Definition
%
Wind Dir Definition
10's deg

Wind Spd Definition
km/h
Visibility Definition
km
Stn Press Definition
kPa
Hmdx Definition


Wind Chill Definition


Weather Definition


TIME
00:00 -14.8 -15.9 91 2 6   99.51   -19 LegendNANA
01:00 -14.1 -15.1 92 10 9   99.52   -20 LegendNANA
02:00 -16.0 -17.4 89 3 8   99.53   -22 LegendNANA
03:00 -14.7 -15.6 93 9 7   99.56   -19 LegendNANA
04:00 -15.8 -17.1 90 5 6   99.59   -20 LegendNANA
05:00 -15.1 -16.0 92 6 6   99.60   -19 LegendNANA
06:00 -14.8 -15.9 91 4 3   99.61   -17 LegendNANA
07:00 -12.0 -12.3 98 12 7   99.62   -16 LegendNANA
08:00 -11.4 -12.1 95 13 5   99.64   -15 LegendNANA
09:00 -11.0 -11.6 95 10 4   99.67   -13 LegendNANA
10:00 -10.4 -11.0 95 12 3   99.67   -12 LegendNANA
11:00 -9.9 -10.4 96 10 6   99.69   -13 LegendNANA
12:00 -9.2 -9.7 96 12 7   99.70   -13 LegendNANA
13:00 -8.7 -9.2 97 11 7   99.71   -13 LegendNANA
14:00 -8.4 -9.0 96 12 8   99.73   -13 LegendNANA
15:00 -8.2 -8.8 95 13 8   99.78   -12 LegendNANA
16:00 -7.8 -8.4 95 12 6   99.80   -11 LegendNANA
17:00 -7.4 -8.2 94 12 8   99.83   -11 LegendNANA
18:00 -7.2 -7.9 95 12 5   99.85   -10 LegendNANA
19:00 -6.9 -7.7 94 10 8   99.86   -11 LegendNANA
20:00 -6.6 -7.7 92 12 5   99.88   -9 LegendNANA
21:00 -6.4 -7.8 90 23 2   99.90   -7 LegendNANA
22:00 -6.0 -7.4 90 21 3   99.92   -7 LegendNANA
23:00 -5.5 -7.1 88 13 10   99.91   -10 LegendNANA

Notes on Data Quality.

Legend

  • E = Estimated
  • M = Missing
  • NA = Not Available
  • ‡ = Partner data that is not subject to review by the National Climate Archives
Date modified: